IW9GDC-13 Weather Reports


Display with metric or nautical units.
time (UTC)temp
F
wind
direction
speed
MPH
gust
MPH
rain 1hr
in
rain 24hr
in
rain mn
in
humidity
%
barometer
mb
20260503212517 61 315 3.0 5.0 0.00 0.00 0.00 69 1021.1
20260503212017 61 315 3.0 5.0 0.00 0.00 0.00 69 1021.1
20260503211517 61 293 4.0 6.0 0.00 0.00 0.00 70 1021.1
20260503211017 61 293 2.0 4.0 0.00 0.00 0.00 70 1021.1
20260503210517 61 315 3.0 6.0 0.00 0.00 0.00 70 1021.1
20260503210017 61 293 3.0 6.0 0.00 0.00 0.00 70 1021.2
20260503205537 61 293 2.0 4.0 0.00 0.00 0.00 70 1021.2
20260503205017 61 315 2.0 4.0 0.00 0.00 0.00 70 1021.2
20260503204517 61 293 2.0 6.0 0.00 0.00 0.00 70 1021.2
20260503204017 61 293 3.0 6.0 0.00 0.00 0.00 71 1021.1
20260503203537 61 293 3.0 6.0 0.00 0.00 0.00 71 1021.1
20260503203017 61 293 3.0 6.0 0.00 0.00 0.00 71 1021.1
20260503202517 61 293 4.0 9.0 0.00 0.00 0.00 70 1021.1
20260503202017 61 293 4.0 7.0 0.00 0.00 0.00 70 1021.0
20260503201537 61 315 4.0 10.0 0.00 0.00 0.00 70 1021.0
20260503201037 61 315 4.0 9.0 0.00 0.00 0.00 71 1021.0
20260503200517 61 293 4.0 8.0 0.00 0.00 0.00 71 1020.9
20260503200017 61 293 3.0 5.0 0.00 0.00 0.00 71 1020.9
20260503195517 61 293 5.0 11.0 0.00 0.00 0.00 71 1020.9
20260503195017 61 315 4.0 9.0 0.00 0.00 0.00 71 1021.0
20260503194518 61 315 4.0 6.0 0.00 0.00 0.00 70 1021.1
20260503194037 61 293 4.0 7.0 0.00 0.00 0.00 71 1021.1
20260503193517 61 293 2.0 4.0 0.00 0.00 0.00 71 1021.2
20260503193017 61 293 3.0 7.0 0.00 0.00 0.00 71 1021.1
20260503192537 61 293 3.0 9.0 0.00 0.00 0.00 71 1021.1
20260503192017 61 270 2.0 7.0 0.00 0.00 0.00 71 1021.1
20260503191517 61 270 3.0 6.0 0.00 0.00 0.00 71 1021.1
20260503191017 62 270 3.0 7.0 0.00 0.00 0.00 71 1020.9
20260503190517 62 270 1.0 4.0 0.00 0.00 0.00 70 1020.8
20260503190016 62 248 1.0 2.0 0.00 0.00 0.00 70 1020.8
20260503185516 61 0 1.0 4.0 0.00 0.00 0.00 70 1020.7
20260503185016 62 338 4.0 6.0 0.00 0.00 0.00 70 1020.7
20260503184557 62 338 5.0 9.0 0.00 0.00 0.00 70 1020.6
20260503184036 62 338 5.0 7.0 0.00 0.00 0.00 69 1020.6
20260503183516 62 0 4.0 7.0 0.00 0.00 0.00 68 1020.7
20260503183017 62 0 4.0 7.0 0.00 0.00 0.00 67 1020.6
20260503182517 62 0 3.0 9.0 0.00 0.00 0.00 67 1020.5
20260503182017 62 0 2.0 5.0 0.00 0.00 0.00 66 1020.2
20260503181516 62 315 2.0 6.0 0.00 0.00 0.00 66 1020.3
20260503181016 62 315 3.0 9.0 0.00 0.00 0.00 65 1020.3
20260503180517 62 315 3.0 6.0 0.00 0.00 0.00 65 1020.2
20260503180016 62 338 2.0 6.0 0.00 0.00 0.00 65 1020.1
20260503175517 63 315 4.0 9.0 0.00 0.00 0.00 65 1020.0
20260503175017 63 293 3.0 6.0 0.00 0.00 0.00 64 1019.9
20260503174516 63 293 3.0 5.0 0.00 0.00 0.00 63 1019.9
20260503174037 63 315 3.0 6.0 0.00 0.00 0.00 63 1020.0
20260503173517 63 293 4.0 7.0 0.00 0.00 0.00 62 1020.0
20260503173016 64 293 3.0 6.0 0.00 0.00 0.00 61 1020.1
20260503172516 64 293 4.0 7.0 0.00 0.00 0.00 61 1020.0
20260503172016 64 293 3.0 7.0 0.00 0.00 0.00 60 1020.1
20260503171517 64 293 3.0 6.0 0.00 0.00 0.00 60 1020.0
20260503171016 64 293 3.0 6.0 0.00 0.00 0.00 60 1019.9
20260503170516 64 248 2.0 5.0 0.00 0.00 0.00 60 1019.9
20260503160137 67 338 5.0 12.0 0.00 0.00 0.00 48 1019.9
20260503150516 68 23 5.0 11.0 0.00 0.00 0.00 47 1019.6
20260503131017 69 315 6.0 14.0 0.00 0.00 0.00 49 1020.0
20260503130518 69 315 6.0 18.0 0.00 0.00 0.00 51 1020.0
20260503110518 68 270 11.0 24.0 0.00 0.00 0.00 50 1020.7
20260503081517 66 270 6.0 13.0 0.00 0.00 0.00 54 1020.9
20260503081017 65 293 7.0 17.0 0.00 0.00 0.00 55 1021.0
20260503080517 65 270 8.0 18.0 0.00 0.00 0.00 55 1021.1
20260503072557 64 270 11.0 23.0 0.00 0.00 0.00 56 1021.2
20260503072037 64 270 9.0 21.0 0.00 0.00 0.00 56 1021.2
20260503071517 64 270 8.0 14.0 0.00 0.00 0.00 56 1021.2
20260503071017 64 270 6.0 17.0 0.00 0.00 0.00 56 1021.2
20260503070517 64 270 8.0 17.0 0.00 0.00 0.00 55 1021.2
20260503055017 63 225 7.0 12.0 0.00 0.00 0.00 57 1021.2
20260503054516 62 225 7.0 19.0 0.00 0.00 0.00 58 1021.2
20260503054016 62 180 7.0 13.0 0.00 0.00 0.00 58 1021.4
20260503053517 62 203 6.0 16.0 0.00 0.00 0.00 59 1021.2
20260503053016 62 248 6.0 14.0 0.00 0.00 0.00 59 1021.0
20260503052516 61 113 3.0 9.0 0.00 0.00 0.00 60 1021.2
20260503052016 61 270 4.0 11.0 0.00 0.00 0.00 61 1021.1
20260503051517 61 180 4.0 11.0 0.00 0.00 0.00 61 1021.3
20260503051016 60 158 1.0 3.0 0.00 0.00 0.00 64 1021.3
20260503050517 60 135 4.0 15.0 0.00 0.00 0.00 64 1021.1
20260503050036 60 315 2.0 6.0 0.00 0.00 0.00 63 1021.2
20260503045517 59 68 2.0 4.0 0.00 0.00 0.00 66 1021.1
20260503045037 59 113 1.0 3.0 0.00 0.00 0.00 66 1021.2
20260503044517 58 203 3.0 7.0 0.00 0.00 0.00 68 1021.1
20260503044017 58 293 2.0 7.0 0.00 0.00 0.00 68 1021.1
20260503043517 58 0.0 2.0 0.00 0.00 0.00 69 1021.0
20260503043016 57 293 3.0 5.0 0.00 0.00 0.00 69 1021.0
20260503042516 58 248 1.0 2.0 0.00 0.00 0.00 69 1020.9
20260503042016 58 248 1.0 4.0 0.00 0.00 0.00 68 1021.0
20260503041016 58 23 2.0 4.0 0.00 0.00 0.00 69 1020.9
20260503040517 58 0.0 1.0 0.00 0.00 0.00 68 1020.9
20260503040016 58 113 1.0 3.0 0.00 0.00 0.00 68 1020.8
20260503035517 58 158 1.0 2.0 0.00 0.00 0.00 67 1020.8
20260503035016 58 23 1.0 3.0 0.00 0.00 0.00 68 1020.9
20260503034516 58 180 2.0 4.0 0.00 0.00 0.00 66 1021.0
20260503034016 59 68 3.0 5.0 0.00 0.00 0.00 65 1021.0
20260503033516 59 68 3.0 5.0 0.00 0.00 0.00 63 1021.1
20260503033016 59 0 2.0 3.0 0.00 0.00 0.00 63 1021.0
20260503032516 59 68 1.0 5.0 0.00 0.00 0.00 63 1021.0
20260503032016 59 45 3.0 4.0 0.00 0.00 0.00 63 1021.0
20260503031516 59 23 2.0 3.0 0.00 0.00 0.00 63 1021.0
20260503031036 59 45 2.0 3.0 0.00 0.00 0.00 63 1021.0
20260503030516 58 90 2.0 3.0 0.00 0.00 0.00 63 1020.9
20260503030016 58 23 3.0 4.0 0.00 0.00 0.00 64 1020.9
20260503025516 58 315 1.0 3.0 0.00 0.00 0.00 64 1020.9
20260503025016 58 90 3.0 7.0 0.00 0.00 0.00 64 1020.9
20260503024516 58 90 1.0 2.0 0.00 0.00 0.00 65 1020.9
20260503024016 58 45 1.0 2.0 0.00 0.00 0.00 65 1020.9
20260503023516 58 158 1.0 3.0 0.00 0.00 0.00 64 1021.0
20260503023016 58 158 1.0 2.0 0.00 0.00 0.00 64 1020.9
20260503022536 59 158 1.0 5.0 0.00 0.00 0.00 63 1021.0
20260503022016 59 113 3.0 5.0 0.00 0.00 0.00 64 1021.1
20260503021516 58 68 1.0 3.0 0.00 0.00 0.00 64 1021.1
20260503021016 58 45 2.0 2.0 0.00 0.00 0.00 63 1021.2
20260503020516 59 90 1.0 2.0 0.00 0.00 0.00 63 1021.2
20260503020056 59 135 1.0 2.0 0.00 0.00 0.00 62 1021.2
20260503015516 59 135 2.0 4.0 0.00 0.00 0.00 61 1021.2
20260503015016 59 0 2.0 5.0 0.00 0.00 0.00 63 1021.3
20260503014536 59 315 2.0 3.0 0.00 0.00 0.00 62 1021.3
20260503014016 59 225 3.0 6.0 0.00 0.00 0.00 63 1021.3
20260503013516 59 113 3.0 5.0 0.00 0.00 0.00 63 1021.2
20260503013016 59 90 4.0 6.0 0.00 0.00 0.00 64 1021.2
20260503012516 58 90 2.0 5.0 0.00 0.00 0.00 64 1021.3
20260503012016 58 315 1.0 3.0 0.00 0.00 0.00 64 1021.3
20260503011516 59 203 1.0 4.0 0.00 0.00 0.00 63 1021.2
20260503011016 59 0 2.0 7.0 0.00 0.00 0.00 62 1021.3
20260503010516 59 68 2.0 4.0 0.00 0.00 0.00 62 1021.5
20260503010016 59 23 3.0 5.0 0.00 0.00 0.00 62 1021.5
20260503005516 59 90 1.0 3.0 0.00 0.00 0.00 63 1021.5
20260503005016 59 180 1.0 3.0 0.00 0.00 0.00 63 1021.6
20260503004536 59 68 3.0 5.0 0.00 0.00 0.00 63 1021.6
20260503004016 59 0 3.0 7.0 0.00 0.00 0.00 64 1021.7
20260503003516 59 113 2.0 4.0 0.00 0.00 0.00 61 1021.6
20260503003018 59 113 2.0 6.0 0.00 0.00 0.00 61 1021.7
20260503002518 58 270 1.0 4.0 0.00 0.00 0.00 61 1021.7
20260503002018 59 90 4.0 6.0 0.00 0.00 0.00 61 1021.8
20260503001518 58 90 1.0 3.0 0.00 0.00 0.00 61 1021.7
20260503001018 58 0.0 2.0 0.00 0.00 0.00 62 1021.8
20260503000518 59 0.0 2.0 0.00 0.00 0.00 62 1021.9
20260503000018 59 45 1.0 2.0 0.00 0.00 0.00 61 1021.9
20260502235518 59 90 1.0 2.0 0.00 0.00 0.00 60 1021.9
20260502235018 59 68 2.0 3.0 0.00 0.00 0.00 60 1022.0
20260502234518 59 23 1.0 2.0 0.00 0.00 0.00 59 1022.0
20260502234017 59 90 2.0 4.0 0.00 0.00 0.00 59 1022.0
20260502233518 59 68 2.0 4.0 0.00 0.00 0.00 59 1022.1
20260502233017 60 23 3.0 4.0 0.00 0.00 0.00 58 1022.3
20260502232518 60 338 3.0 6.0 0.00 0.00 0.00 58 1022.3
20260502232018 60 0 4.0 11.0 0.00 0.00 0.00 58 1022.3
20260502231518 60 315 4.0 9.0 0.00 0.00 0.00 58 1022.2
20260502231018 60 113 2.0 6.0 0.00 0.00 0.00 57 1022.4
20260502230538 60 293 2.0 8.0 0.00 0.00 0.00 57 1022.3
20260502230017 60 225 3.0 6.0 0.00 0.00 0.00 57 1022.4
20260502225517 60 180 4.0 11.0 0.00 0.00 0.00 57 1022.5
20260502225018 60 270 4.0 10.0 0.00 0.00 0.00 58 1022.5
20260502224518 60 248 3.0 11.0 0.00 0.00 0.00 58 1022.5
20260502224018 59 203 2.0 7.0 0.00 0.00 0.00 58 1022.7
20260502223518 59 248 1.0 2.0 0.00 0.00 0.00 58 1022.7
20260502223018 59 0.0 1.0 0.00 0.00 0.00 57 1022.8
20260502222517 59 293 1.0 2.0 0.00 0.00 0.00 58 1022.7
20260502222018 59 0.0 2.0 0.00 0.00 0.00 57 1022.7
20260502221518 59 225 2.0 3.0 0.00 0.00 0.00 56 1022.8
20260502221017 60 68 1.0 3.0 0.00 0.00 0.00 56 1022.7
20260502220517 59 68 3.0 7.0 0.00 0.00 0.00 56 1022.7
20260502220017 59 0 3.0 5.0 0.00 0.00 0.00 57 1022.7
20260502215517 59 113 1.0 3.0 0.00 0.00 0.00 59 1022.8
20260502215017 59 135 1.0 3.0 0.00 0.00 0.00 58 1022.8
20260502214517 59 0.0 1.0 0.00 0.00 0.00 58 1022.8
20260502214017 60 68 1.0 2.0 0.00 0.00 0.00 57 1022.8
20260502213517 60 90 2.0 6.0 0.00 0.00 0.00 57 1022.9
20260502213017 60 23 1.0 4.0 0.00 0.00 0.00 57 1022.9